This is the latest recevied weather packets stored in our database for station/object ZL3GL-4. If no packets are shown the sender has not sent any weather packets the latest 10 day(s).
| Time | Temp. | Humidity | Pressure | Rain* | Wind** | Luminosity | Snow |
|---|---|---|---|---|---|---|---|
| 1777513190 | 13.89° C | 62% | 1036.5 hPa | 0 mm | 5.81 m/s, 68° | - | - |
| 1777512346 | 13.89° C | 62% | 1036.5 hPa | 0 mm | 5.36 m/s, 21° | - | - |
| 1777511502 | 13.89° C | 64% | 1036.6 hPa | 0 mm | 3.58 m/s, 59° | - | - |
| 1777510658 | 13.89° C | 63% | 1036.7 hPa | 0 mm | 5.36 m/s, 15° | - | - |
| 1777509815 | 13.89° C | 65% | 1036.6 hPa | 0 mm | 3.13 m/s, 111° | - | - |
| 1777508972 | 13.89° C | 63% | 1036.8 hPa | 0 mm | 4.02 m/s, 60° | - | - |
| 1777508127 | 13.89° C | 65% | 1036.8 hPa | 0 mm | 4.02 m/s, 42° | - | - |
| 1777507283 | 13.89° C | 66% | 1036.9 hPa | 0 mm | 3.58 m/s, 42° | - | - |
| 1777506439 | 14.44° C | 64% | 1036.9 hPa | 0 mm | 4.47 m/s, 56° | - | - |
| 1777505599 | 13.89° C | 66% | 1036.8 hPa | 0 mm | 3.58 m/s, 353° | - | - |
| 1777504753 | 13.89° C | 69% | 1036.8 hPa | 0 mm | 4.92 m/s, 18° | - | - |
| 1777503908 | 13.89° C | 74% | 1036.6 hPa | 0 mm | 3.13 m/s, 6° | - | - |
| 1777503065 | 13.33° C | 74% | 1036.6 hPa | 0 mm | 3.58 m/s, 349° | - | - |
| 1777502221 | 13.33° C | 76% | 1036.6 hPa | 0 mm | 3.58 m/s, 353° | - | - |
| 1777501378 | 13.33° C | 73% | 1036.5 hPa | 0 mm | 3.13 m/s, 24° | - | - |
| 1777500533 | 12.78° C | 73% | 1036.6 hPa | 0 mm | 4.47 m/s, 38° | - | - |
| 1777499689 | 12.78° C | 75% | 1036.6 hPa | 0 mm | 3.58 m/s, 41° | - | - |
| 1777498845 | 11.67° C | 79% | 1036.6 hPa | 0 mm | 3.13 m/s, 11° | - | - |
| 1777498001 | 11.67° C | 77% | 1036.6 hPa | 0 mm | 1.34 m/s, 325° | - | - |
| 1777497157 | 11.11° C | 80% | 1036.5 hPa | 0 mm | 0 m/s | - | - |
| 1777496312 | 10° C | 81% | 1036.3 hPa | 0 mm | 0.45 m/s, 274° | - | - |
| 1777495469 | 9.44° C | 81% | 1036.3 hPa | 0 mm | 1.34 m/s, 316° | - | - |
| 1777494626 | 9.44° C | 83% | 1036 hPa | 0 mm | 0.89 m/s, 300° | - | - |
| 1777493785 | 8.33° C | 83% | 1035.9 hPa | 0 mm | 0.89 m/s, 309° | - | - |
| 1777492940 | 8.33° C | 83% | 1035.6 hPa | 0 mm | 1.34 m/s, 301° | - | - |
* Rain latest hour (hover to see other rain measurements)
** Current wind speed in m/s (hover to see current wind gust speed)